Wind_Speed
31 31 30 29 29 29 27 26 24 21 20 18 17 16 15 14 13 12 13 13 12 13 13 12 12 11 11 10 11 11 11 11 12 11 10 9 9 10 10 11 11 11 12 12
32 31 31 31 30 29 28 26 25 23 21 18 18 17 16 15 14 14 14 14 15 15 14 13 12 12 12 11 11 12 12 12 12 11 11 11 11 11 12 12 12 12 12 13
32 31 31 32 31 30 29 27 26 24 21 20 19 17 17 17 16 16 15 15 16 15 15 14 13 11 11 11 11 12 13 13 13 12 12 12 12 12 13 13 14 14 14 14
33 32 33 31 30 30 30 29 27 25 23 22 20 18 18 18 17 16 15 15 16 14 14 14 14 12 12 12 12 13 14 13 13 13 14 14 13 14 14 14 14 14 15 15
35 34 34 32 31 30 30 30 29 27 25 23 22 21 20 19 18 17 16 16 16 16 16 16 15 14 13 12 13 14 13 14 14 15 15 14 14 15 15 15 15 16 16 16
36 36 36 33 31 31 31 30 28 27 26 25 24 23 21 20 19 18 17 17 18 17 17 16 15 14 15 15 15 15 15 15 16 16 15 15 15 15 15 16 16 17 17 17
36 37 37 34 33 32 32 30 28 27 27 26 25 23 22 21 21 20 19 19 19 18 17 16 16 15 15 15 15 16 17 17 16 16 16 16 16 16 16 17 17 17 18 18
37 38 37 35 33 33 33 30 29 28 28 28 26 25 24 24 23 22 20 20 20 19 18 18 18 18 18 16 17 17 18 18 18 17 17 17 17 17 18 18 18 19 19 19
38 37 36 35 35 34 33 32 30 29 29 28 27 27 26 25 24 23 23 22 21 20 20 20 20 20 19 19 19 19 19 18 18 18 18 18 19 19 19 19 19 19 20 20
39 38 37 36 35 35 34 32 30 30 29 28 28 28 28 27 25 24 24 24 23 22 22 21 22 22 21 21 20 20 19 19 19 19 19 19 20 20 20 20 20 20 20 21
40 38 37 36 35 34 34 33 31 30 30 31 29 28 28 27 26 26 26 25 24 24 24 24 23 24 23 22 21 21 20 20 20 20 20 20 20 21 21 20 21 21 22 22
41 39 38 37 35 35 33 33 32 31 30 30 30 29 29 29 28 26 25 25 25 25 24 24 24 24 24 23 22 22 21 21 21 21 21 21 21 22 21 22 22 23 23 23
40 39 38 37 36 34 33 32 31 31 30 30 29 29 30 29 28 27 26 26 26 25 24 24 24 25 24 23 22 22 22 22 22 22 22 23 23 23 23 23 24 24 25 25
39 38 37 36 36 35 34 33 32 31 30 30 29 30 30 30 29 29 28 28 26 25 25 25 25 24 23 22 22 23 22 22 23 23 23 24 24 24 24 25 25 25 25 26
40 39 37 36 36 36 35 34 33 32 32 32 32 32 31 31 30 29 29 29 27 26 26 25 24 23 23 23 23 23 23 23 23 23 24 24 24 25 25 26 26 27 27 27
40 40 38 37 36 37 36 34 34 34 33 33 33 33 32 31 31 30 30 29 27 27 26 25 24 24 24 24 24 24 24 24 24 25 25 25 25 26 26 27 28 28 29 28
39 39 39 37 36 36 36 35 34 33 33 32 33 34 34 32 31 30 29 28 28 27 26 26 25 25 24 25 25 25 26 26 26 26 27 27 27 27 28 29 29 29 29 29
38 38 39 39 38 37 36 35 34 33 33 33 33 33 33 32 30 29 29 29 28 28 27 27 27 27 26 26 26 27 27 27 27 28 28 28 29 29 29 29 29 29 30 29
38 38 38 38 38 37 36 36 35 34 33 32 32 32 32 32 31 30 30 30 30 29 29 28 28 28 28 27 27 27 27 27 28 28 29 29 29 29 29 30 30 30 30 29
38 37 37 36 36 36 36 35 35 34 33 32 32 31 30 30 30 30 30 30 30 29 29 29 28 27 28 27 27 27 27 28 28 28 28 28 29 29 29 29 30 29 29 29
36 37 36 35 34 34 34 33 33 33 32 31 30 30 29 29 30 30 31 30 29 29 29 29 28 28 28 28 28 28 28 29 29 28 28 28 28 29 29 29 29 29 28 28
33 33 33 33 33 33 32 32 32 32 32 30 30 29 29 29 29 29 29 29 29 29 28 28 28 28 29 29 29 29 29 29 29 29 29 28 28 28 28 28 28 28 28 28
29 30 31 31 31 31 31 30 30 30 30 30 29 29 28 28 28 28 28 28 28 28 28 27 28 28 29 30 29 29 29 28 28 28 28 28 28 28 28 28 28 28 28 27
27 27 28 28 28 28 28 29 29 29 29 28 28 28 28 28 28 28 28 28 28 28 27 27 28 28 28 28 28 28 28 27 27 27 27 27 27 27 27 27 27 27 27 26
25 26 26 27 27 27 27 28 28 28 28 28 27 27 27 28 28 28 27 27 27 27 28 28 28 28 28 27 28 28 28 27 27 27 27 27 26 26 26 26 26 26 26 26
23 23 24 24 24 24 25 26 26 26 27 26 26 25 25 26 26 26 26 26 26 27 27 26 26 26 26 26 26 26 26 26 26 26 26 26 26 26 25 26 25 25 25 26
20 21 22 23 23 23 23 24 24 25 25 25 25 25 25 25 25 26 26 25 25 25 25 25 24 24 25 25 25 25 24 25 25 25 25 25 26 25 25 25 25 26 26 26
Wind_Direction
223 225 227 229 232 235 238 243 247 250 254 254 256 260 266 269 274 278 284 288 292 301 307 310 315 316 314 312 316 321 325 327 326 326 323 320 317 317 316 313 312 312 309 307
222 224 226 228 231 234 237 241 245 248 252 256 255 258 262 267 270 278 284 286 291 298 301 303 308 309 309 312 313 315 318 320 323 322 319 317 319 321 320 318 315 313 310 309
224 225 227 228 229 233 237 240 244 247 251 254 256 260 262 266 270 275 282 288 294 294 296 297 300 300 301 307 310 313 314 313 315 316 317 317 317 315 316 316 314 314 311 310
226 226 228 229 230 233 237 239 243 247 249 253 255 257 258 263 270 276 280 286 292 289 294 295 294 291 295 301 308 308 309 308 309 311 313 313 313 313 313 314 313 312 312 311
228 229 231 231 232 234 237 240 244 247 249 250 251 255 259 263 269 275 277 283 289 291 289 291 291 289 291 297 301 303 305 308 310 309 310 311 310 311 311 312 312 309 308 307
231 232 233 233 234 236 238 241 243 246 249 250 251 255 260 263 267 271 274 281 286 289 291 292 295 293 293 296 298 300 305 307 308 310 307 306 308 308 309 309 308 307 307 306
233 235 235 235 236 237 239 241 243 245 248 250 251 254 256 260 264 270 273 280 283 286 289 293 295 296 296 297 298 301 303 305 306 308 306 304 306 307 307 307 306 306 306 306
233 235 236 236 238 239 241 242 244 245 246 248 249 252 255 259 263 268 272 277 282 283 285 288 291 293 295 295 296 299 300 301 300 302 303 302 304 305 305 304 303 304 305 306
233 236 238 239 239 239 240 243 245 245 245 246 248 251 256 261 261 263 270 276 280 282 284 285 288 292 293 295 293 293 294 296 297 299 300 301 303 303 303 303 303 303 305 307
234 236 238 240 240 239 240 242 243 244 245 247 250 251 254 260 261 263 268 274 277 281 283 283 285 288 290 292 290 290 292 294 296 297 297 298 300 302 302 302 303 304 305 306
234 236 238 238 240 240 241 241 242 244 246 248 250 251 253 256 260 264 267 270 273 276 278 279 282 285 286 289 289 287 289 291 293 294 295 295 297 298 298 300 302 302 303 304
234 236 239 240 241 241 240 240 241 243 246 249 250 251 253 255 258 260 263 266 270 272 274 277 280 284 285 287 286 285 287 289 291 292 293 295 296 296 295 297 298 300 302 303
234 235 237 238 238 239 239 240 242 243 244 247 248 250 253 255 258 260 261 262 266 271 273 277 281 284 286 286 285 285 286 287 289 290 292 293 294 294 295 296 297 298 300 301
234 234 234 235 237 237 238 240 241 241 242 245 248 251 252 252 255 259 261 263 266 269 273 277 280 282 283 284 284 284 286 286 287 288 290 291 292 293 295 296 297 298 299 300
233 233 233 235 236 236 237 240 242 243 244 247 249 250 251 249 251 256 261 264 266 270 273 276 277 278 280 282 283 284 285 285 285 286 288 290 291 294 295 296 296 298 299 300
234 234 235 235 236 237 239 241 243 245 245 246 248 248 250 251 252 255 260 263 266 269 272 274 276 277 279 281 283 283 284 285 285 287 288 289 290 291 292 294 296 297 298 299
235 236 237 238 238 240 240 241 243 246 247 247 247 247 250 251 252 255 259 261 265 268 271 273 275 277 279 281 282 282 283 284 285 286 287 288 289 290 291 293 294 296 298 299
236 237 237 238 239 241 242 243 243 245 247 247 249 251 254 254 254 256 258 260 264 267 269 271 274 275 278 281 282 282 283 284 285 285 286 287 288 290 291 291 292 295 298 298
234 236 238 240 240 241 243 245 245 246 247 247 249 252 253 253 255 258 259 261 264 267 268 269 272 275 278 279 280 281 282 283 284 285 286 287 287 288 289 290 292 294 295 295
235 236 238 238 240 242 243 244 245 247 248 249 251 251 251 253 255 257 260 262 264 266 267 268 270 273 275 277 278 280 281 283 284 285 285 286 287 287 288 290 292 293 294 295
236 237 238 237 239 241 243 243 243 246 250 252 253 253 254 255 256 259 261 262 264 266 266 267 269 272 273 275 277 279 280 282 283 283 285 287 288 288 289 290 291 293 295 295
234 235 237 239 240 241 243 245 245 248 251 253 254 254 255 256 258 260 261 263 264 265 266 265 267 269 271 274 276 278 280 282 283 284 285 286 288 288 289 290 291 292 294 295
231 234 237 238 240 242 244 245 245 248 250 253 254 255 255 256 258 260 262 263 264 264 265 266 268 270 272 274 275 277 279 281 281 283 284 285 286 287 289 291 292 292 293 294
230 232 235 237 240 242 243 244 245 247 250 253 255 255 255 257 258 260 262 263 263 263 264 265 267 269 271 273 275 277 278 279 280 282 283 284 285 286 287 289 291 292 293 295
230 233 236 239 241 242 242 243 244 246 248 250 252 252 254 255 257 258 260 261 261 262 263 264 265 267 268 270 273 275 276 277 279 281 283 284 284 285 287 289 291 292 294 296
229 232 235 237 239 240 241 242 243 244 246 248 248 249 250 253 255 256 258 259 260 261 261 262 264 267 268 269 271 273 275 278 279 279 281 283 283 285 288 291 291 293 295 297
229 231 233 235 237 239 240 240 239 240 241 243 245 246 248 252 254 255 257 258 259 259 260 263 265 267 268 269 270 273 275 277 278 279 281 283 284 286 289 291 293 295 296 297
Height
5867 5871 5874 5878 5881 5884 5887 5890 5893 5895 5897 5900 5901 5903 5904 5904 5905 5905 5904 5904 5903 5902 5900 5899 5898 5897 5895 5894 5893 5891 5890 5887 5885 5884 5882 5880 5879 5878 5876 5875 5873 5872 5870 5869
5861 5865 5869 5872 5876 5879 5882 5885 5888 5890 5893 5895 5897 5898 5900 5901 5902 5902 5901 5901 5900 5898 5897 5896 5895 5894 5893 5892 5891 5889 5888 5886 5884 5882 5880 5878 5877 5876 5874 5873 5871 5869 5868 5866
5855 5859 5863 5866 5871 5874 5877 5880 5883 5886 5890 5891 5893 5895 5896 5897 5898 5898 5898 5897 5896 5894 5894 5893 5892 5891 5890 5889 5888 5887 5885 5883 5882 5880 5879 5877 5875 5874 5872 5870 5868 5867 5865 5863
5849 5854 5857 5864 5866 5869 5872 5875 5879 5881 5884 5886 5888 5890 5892 5893 5894 5894 5894 5893 5892 5891 5890 5890 5889 5888 5887 5886 5885 5884 5882 5881 5879 5878 5876 5874 5873 5871 5869 5867 5866 5864 5862 5860
5843 5847 5851 5856 5860 5863 5867 5870 5873 5876 5879 5881 5883 5885 5887 5888 5890 5890 5890 5889 5889 5888 5888 5887 5886 5885 5884 5883 5882 5881 5880 5878 5876 5875 5873 5872 5870 5868 5866 5864 5863 5861 5859 5857
5836 5840 5844 5851 5854 5857 5862 5864 5868 5870 5873 5876 5878 5880 5883 5884 5884 5885 5885 5885 5884 5884 5884 5883 5882 5881 5881 5879 5878 5877 5876 5875 5873 5871 5870 5868 5866 5865 5863 5861 5859 5858 5856 5854
5829 5833 5838 5844 5848 5851 5856 5860 5862 5865 5867 5870 5872 5875 5877 5878 5879 5880 5880 5880 5880 5880 5879 5879 5878 5878 5876 5875 5874 5874 5872 5871 5869 5868 5866 5864 5863 5861 5859 5858 5856 5854 5852 5850
5821 5826 5833 5837 5841 5845 5849 5852 5855 5858 5861 5864 5866 5869 5871 5872 5873 5874 5875 5875 5875 5875 5875 5874 5874 5873 5872 5869 5870 5869 5868 5867 5865 5863 5862 5860 5859 5857 5855 5853 5851 5850 5847 5845
5815 5821 5825 5830 5834 5838 5841 5845 5848 5851 5854 5857 5860 5863 5865 5866 5867 5868 5869 5870 5870 5870 5870 5870 5869 5868 5866 5865 5865 5865 5864 5862 5860 5859 5857 5856 5854 5852 5851 5849 5847 5845 5843 5841
5807 5812 5817 5822 5826 5830 5835 5838 5842 5844 5847 5851 5854 5856 5858 5860 5861 5862 5863 5864 5865 5865 5864 5864 5864 5863 5862 5861 5860 5859 5858 5857 5855 5854 5852 5851 5849 5847 5846 5844 5842 5840 5838 5836
5799 5805 5809 5814 5819 5823 5827 5831 5835 5838 5841 5843 5846 5849 5851 5853 5854 5856 5857 5858 5858 5859 5858 5858 5857 5857 5856 5856 5854 5853 5852 5851 5850 5848 5847 5846 5844 5842 5841 5839 5837 5835 5833 5830
5792 5798 5802 5807 5811 5815 5819 5824 5827 5830 5833 5836 5839 5841 5843 5845 5847 5848 5850 5851 5851 5852 5852 5851 5851 5850 5849 5848 5848 5847 5846 5845 5844 5843 5841 5840 5838 5837 5835 5833 5831 5829 5827 5824
5784 5789 5794 5798 5803 5807 5812 5816 5820 5823 5826 5829 5831 5834 5836 5838 5839 5841 5842 5844 5844 5844 5845 5844 5844 5843 5843 5842 5841 5840 5839 5839 5837 5836 5835 5834 5832 5830 5829 5827 5825 5823 5820 5818
5776 5781 5786 5790 5795 5799 5804 5808 5812 5815 5818 5821 5824 5826 5828 5830 5832 5833 5835 5836 5837 5837 5837 5837 5836 5836 5836 5835 5834 5834 5833 5832 5831 5830 5828 5827 5825 5824 5822 5820 5819 5816 5814 5811
5767 5772 5778 5782 5787 5791 5796 5800 5804 5807 5811 5814 5816 5818 5820 5821 5823 5825 5827 5828 5829 5829 5830 5829 5829 5829 5828 5828 5827 5827 5826 5825 5824 5823 5821 5820 5819 5817 5815 5813 5812 5809 5807 5804
5759 5764 5769 5774 5778 5783 5787 5792 5795 5799 5802 5805 5807 5809 5811 5813 5814 5817 5819 5820 5821 5822 5822 5822 5822 5821 5821 5821 5820 5819 5819 5818 5817 5815 5814 5813 5811 5810 5808 5806 5804 5802 5799 5797
5750 5755 5760 5765 5770 5774 5779 5783 5787 5790 5793 5796 5798 5800 5802 5804 5807 5809 5810 5812 5813 5814 5814 5814 5814 5814 5813 5813 5812 5812 5811 5810 5809 5808 5807 5805 5804 5802 5801 5799 5796 5794 5792 5789
5742 5747 5752 5757 5761 5766 5770 5775 5778 5782 5785 5787 5789 5792 5794 5796 5798 5800 5802 5804 5805 5806 5806 5806 5806 5806 5805 5805 5804 5804 5803 5802 5801 5800 5798 5797 5795 5794 5792 5790 5788 5786 5784 5781
5734 5739 5744 5748 5753 5757 5762 5766 5770 5773 5776 5778 5781 5783 5785 5787 5790 5792 5794 5795 5796 5797 5798 5798 5798 5798 5797 5797 5796 5795 5795 5794 5793 5791 5790 5788 5787 5785 5784 5782 5780 5778 5775 5773
5726 5731 5736 5740 5744 5748 5753 5756 5760 5764 5767 5769 5772 5774 5776 5778 5781 5783 5785 5786 5787 5788 5789 5789 5789 5789 5789 5789 5788 5787 5787 5786 5784 5783 5781 5780 5778 5777 5775 5773 5771 5769 5767 5765
5718 5723 5728 5732 5736 5740 5744 5748 5751 5755 5758 5760 5763 5765 5768 5770 5772 5774 5776 5777 5778 5779 5779 5780 5781 5781 5781 5780 5780 5779 5778 5777 5776 5775 5773 5772 5770 5768 5767 5765 5763 5761 5759 5757
5711 5715 5720 5724 5728 5732 5736 5740 5743 5746 5749 5752 5754 5757 5759 5761 5763 5765 5767 5768 5769 5770 5771 5771 5772 5772 5772 5772 5771 5771 5770 5769 5768 5766 5765 5763 5762 5760 5759 5757 5755 5753 5751 5749
5704 5708 5712 5716 5720 5724 5728 5731 5735 5738 5741 5743 5746 5748 5750 5752 5754 5756 5758 5759 5760 5761 5762 5763 5763 5763 5763 5763 5762 5762 5761 5760 5759 5758 5757 5755 5754 5752 5751 5749 5747 5745 5743 5741
5697 5701 5705 5709 5712 5716 5719 5723 5726 5729 5732 5735 5737 5739 5742 5744 5746 5747 5749 5750 5751 5752 5753 5754 5754 5754 5754 5754 5754 5753 5753 5752 5751 5750 5749 5747 5746 5744 5743 5741 5739 5737 5735 5733
5691 5695 5698 5702 5705 5708 5711 5714 5717 5720 5723 5726 5729 5731 5733 5735 5737 5739 5740 5741 5742 5743 5744 5745 5745 5746 5746 5746 5745 5745 5745 5744 5743 5742 5741 5739 5738 5737 5735 5733 5731 5730 5728 5726
5685 5689 5692 5695 5698 5701 5704 5706 5709 5712 5715 5718 5720 5723 5725 5727 5729 5730 5731 5732 5734 5735 5736 5736 5737 5737 5737 5738 5737 5737 5737 5736 5735 5734 5733 5732 5730 5729 5727 5725 5724 5722 5720 5718
5680 5683 5686 5689 5692 5694 5697 5700 5702 5705 5708 5710 5713 5715 5717 5719 5721 5722 5723 5725 5726 5727 5728 5728 5729 5729 5730 5730 5730 5729 5729 5728 5727 5726 5725 5724 5723 5721 5720 5718 5716 5715 5713 5710